{"data":{"norad_id":53589,"epoch":"2026-05-25T01:28:27.662592Z","epoch_age_seconds":59836,"freshness":"FRESH","line1":"1 53589U 22104B   26145.06143128  .00000474  00000+0  47859-4 0  9993","line2":"2 53589  53.2159 261.3240 0001250  89.7886 270.3249 15.08840787207474","mean_motion":15.08840787,"eccentricity":0.000125,"inclination_deg":53.2159,"raan_deg":261.324,"arg_perigee_deg":89.7886,"mean_anomaly_deg":270.3249,"bstar":4.7859e-5,"rev_number":20747,"period_min":95.437504898255,"perigee_km":538.87624867307,"apogee_km":540.60571816892,"semimajor_km":6917.877983421,"source":"CELESTRAK","updated_at":"2026-05-25T13:38:17.473618Z"}}